This is the latest recevied weather packets stored in our database for station/object KE8DDT-7. If no packets are shown the sender has not sent any weather packets the latest 10 day(s).
| Time | Temp. | Humidity | Pressure | Rain* | Wind** | Luminosity | Snow |
|---|---|---|---|---|---|---|---|
| 1778088998 | 10° C | 54% | 1004.8 hPa | 0 mm | - | 803 W/m² | - |
| 1778088699 | 10° C | 51% | 1005 hPa | 0 mm | - | 353 W/m² | - |
| 1778088399 | 10° C | 52% | 1005.1 hPa | 0 mm | - | 330 W/m² | - |
| 1778087800 | 10° C | 53% | 1005.2 hPa | 0 mm | - | 371 W/m² | - |
| 1778087498 | 10° C | 52% | 1005.2 hPa | 0 mm | - | 397 W/m² | - |
| 1778086419 | 9.44° C | 53% | 1004.8 hPa | 0 mm | - | 276 W/m² | - |
| 1778085699 | 9.44° C | 52% | 1004.9 hPa | 0 mm | - | 575 W/m² | - |
| 1778085399 | 9.44° C | 53% | 1004.9 hPa | 0 mm | - | 452 W/m² | - |
| 1778085099 | 9.44° C | 52% | 1004.9 hPa | 0 mm | - | 524 W/m² | - |
| 1778084799 | 9.44° C | 55% | 1004.8 hPa | 0 mm | - | 304 W/m² | - |
| 1778084499 | 9.44° C | 54% | 1004.8 hPa | 0 mm | - | 278 W/m² | - |
| 1778084200 | 9.44° C | 53% | 1004.7 hPa | 0 mm | - | 318 W/m² | - |
| 1778083899 | 9.44° C | 54% | 1004.7 hPa | 0 mm | - | 325 W/m² | - |
| 1778083599 | 9.44° C | 53% | 1004.9 hPa | 0 mm | - | 461 W/m² | - |
| 1778083299 | 9.44° C | 54% | 1004.8 hPa | 0 mm | - | 380 W/m² | - |
| 1778082818 | 9.44° C | 56% | 1004.8 hPa | 0 mm | - | 506 W/m² | - |
| 1778082518 | 9.44° C | 55% | 1004.8 hPa | 0 mm | - | 443 W/m² | - |
| 1778082218 | 9.44° C | 54% | 1004.6 hPa | 0 mm | - | 295 W/m² | - |
| 1778081918 | 9.44° C | 54% | 1004.6 hPa | 0 mm | - | 294 W/m² | - |
| 1778081618 | 10° C | 52% | 1004.6 hPa | 0 mm | - | 390 W/m² | - |
| 1778081318 | 10° C | 53% | 1004.5 hPa | 0 mm | - | 504 W/m² | - |
| 1778081018 | 10° C | 53% | 1004.4 hPa | 0 mm | - | 622 W/m² | - |
| 1778080719 | 10° C | 53% | 1004.4 hPa | 0 mm | - | 705 W/m² | - |
| 1778080418 | 10° C | 53% | 1004.4 hPa | 0 mm | - | 726 W/m² | - |
| 1778080118 | 10° C | 55% | 1004.3 hPa | 0 mm | - | 765 W/m² | - |
* Rain latest hour (hover to see other rain measurements)
** Current wind speed in m/s (hover to see current wind gust speed)